When you browse on this site, cookies collect data to enhance your experience and personalize the content and advertising you see.
Visit our Privacy Policy to learn more. By continuing to use the site, you agree to this use of cookies and data.
  • In Sweden
  • List of Countries
  • For 7 days
  • Water Temperature
  • Weather Map
  • Weather Widgets
  • user-avatar
    Login

    Hourly Weather Ali Bayramli

    Today, 25 May, Monday

    Time Temperature Precipitation Wind Pressure Humidity
    00:00 +17°C° 0 mm 4 mps 764 mmHg 62%
    01:00 +17°C° 0 mm 3 mps 764 mmHg 63%
    02:00 +17°C° 0 mm 3 mps 764 mmHg 64%
    03:00 +17°C° 0 mm 3 mps 764 mmHg 65%
    04:00 +17°C° 0 mm 2 mps 764 mmHg 65%
    05:00 +17°C° 0 mm 2 mps 764 mmHg 64%
    06:00 +17°C° 0 mm 2 mps 765 mmHg 64%
    07:00 +19°C° 0 mm 2 mps 764 mmHg 57%
    08:00 +20°C° 0 mm 2 mps 764 mmHg 51%
    09:00 +21°C° 0 mm 2 mps 764 mmHg 44%
    10:00 +24°C° 0 mm 3 mps 763 mmHg 39%
    11:00 +26°C° 0 mm 5 mps 763 mmHg 34%
    12:00 +28°C° 0 mm 6 mps 762 mmHg 28%
    13:00 +27°C° 0 mm 7 mps 762 mmHg 31%
    14:00 +27°C° 0 mm 8 mps 761 mmHg 34%
    15:00 +26°C° 0 mm 8 mps 760 mmHg 36%
    16:00 +24°C° 0 mm 8 mps 760 mmHg 41%
    17:00 +23°C° 0 mm 7 mps 759 mmHg 47%
    18:00 +21°C° 0 mm 7 mps 759 mmHg 52%
    19:00 +20°C° 0 mm 5 mps 759 mmHg 57%
    20:00 +19°C° 0 mm 3 mps 759 mmHg 62%
    21:00 +18°C° 0 mm 2 mps 758 mmHg 67%
    22:00 +18°C° 0 mm 2 mps 758 mmHg 69%
    23:00 +18°C° 0 mm 2 mps 758 mmHg 70%

    Tomorrow, 26 May, Tuesday

    Time Temperature Precipitation Wind Pressure Humidity
    00:00 +17°C° 0 mm 3 mps 757 mmHg 71%
    01:00 +17°C° 0 mm 3 mps 757 mmHg 71%
    02:00 +17°C° 0 mm 4 mps 757 mmHg 72%
    03:00 +15°C° 0 mm 5 mps 757 mmHg 72%
    04:00 +16°C° 0 mm 6 mps 757 mmHg 69%
    05:00 +17°C° 0 mm 7 mps 758 mmHg 66%
    06:00 +17°C° 0 mm 8 mps 758 mmHg 64%
    07:00 +21°C° 0 mm 8 mps 758 mmHg 56%
    08:00 +23°C° 0 mm 7 mps 759 mmHg 48%
    09:00 +27°C° 0 mm 7 mps 759 mmHg 40%
    10:00 +28°C° 0 mm 6 mps 759 mmHg 35%
    11:00 +30°C° 0 mm 5 mps 760 mmHg 31%
    12:00 +33°C° 0 mm 4 mps 760 mmHg 26%
    13:00 +32°C° 0 mm 6 mps 760 mmHg 30%
    14:00 +30°C° 0 mm 7 mps 760 mmHg 33%
    15:00 +29°C° 0 mm 9 mps 760 mmHg 37%
    16:00 +28°C° 0 mm 9 mps 761 mmHg 40%
    17:00 +26°C° 0 mm 9 mps 762 mmHg 43%
    18:00 +24°C° 0 mm 9 mps 762 mmHg 45%
    19:00 +23°C° 0 mm 8 mps 763 mmHg 50%
    20:00 +22°C° 0 mm 7 mps 763 mmHg 54%
    21:00 +21°C° 0 mm 6 mps 764 mmHg 58%
    22:00 +20°C° 0 mm 5 mps 764 mmHg 63%
    23:00 +20°C° 0 mm 4 mps 764 mmHg 68%

    Day after tomorrow, 27 May, Wednesday

    Time Temperature Precipitation Wind Pressure Humidity
    00:00 +19°C° 0 mm 3 mps 764 mmHg 73%
    01:00 +18°C° 0 mm 2 mps 764 mmHg 75%
    02:00 +19°C° 0 mm 1 mps 763 mmHg 77%
    03:00 +18°C° 0 mm 1 mps 763 mmHg 80%
    04:00 +19°C° 0 mm 1 mps 763 mmHg 76%
    05:00 +18°C° 0 mm 0 mps 764 mmHg 72%
    06:00 +18°C° 0 mm 0 mps 764 mmHg 68%
    07:00 +20°C° 0 mm 0 mps 764 mmHg 60%
    08:00 +24°C° 0 mm 1 mps 764 mmHg 53%
    09:00 +25°C° 0 mm 1 mps 764 mmHg 46%
    10:00 +27°C° 0 mm 1 mps 764 mmHg 42%
    11:00 +28°C° 0 mm 2 mps 764 mmHg 37%
    12:00 +29°C° 0 mm 2 mps 763 mmHg 33%
    13:00 +29°C° 0 mm 3 mps 763 mmHg 32%
    14:00 +30°C° 0 mm 4 mps 762 mmHg 32%
    15:00 +30°C° 0 mm 5 mps 762 mmHg 31%
    16:00 +29°C° 0 mm 5 mps 762 mmHg 33%
    17:00 +28°C° 0 mm 5 mps 762 mmHg 35%
    18:00 +27°C° 0 mm 5 mps 762 mmHg 36%
    19:00 +25°C° 0 mm 4 mps 762 mmHg 43%
    20:00 +24°C° 0 mm 3 mps 762 mmHg 49%
    21:00 +21°C° 0 mm 3 mps 762 mmHg 56%
    22:00 +20°C° 0 mm 2 mps 762 mmHg 59%
    23:00 +21°C° 0 mm 1 mps 762 mmHg 63%

    28 May, Thursday

    Time Temperature Precipitation Wind Pressure Humidity
    00:00 +20°C° 0 mm 1 mps 761 mmHg 67%
    01:00 +20°C° 0 mm 1 mps 761 mmHg 68%
    02:00 +19°C° 0 mm 1 mps 761 mmHg 70%
    03:00 +19°C° 0 mm 1 mps 760 mmHg 71%
    04:00 +20°C° 0 mm 1 mps 760 mmHg 68%
    05:00 +21°C° 0 mm 1 mps 761 mmHg 64%
    06:00 +20°C° 0 mm 2 mps 761 mmHg 61%
    07:00 +23°C° 0 mm 2 mps 760 mmHg 54%
    08:00 +25°C° 0 mm 2 mps 760 mmHg 47%
    09:00 +27°C° 0 mm 2 mps 760 mmHg 39%
    10:00 +29°C° 0 mm 2 mps 760 mmHg 36%
    11:00 +30°C° 0 mm 2 mps 759 mmHg 33%
    12:00 +32°C° 0 mm 2 mps 759 mmHg 30%
    13:00 +33°C° 0 mm 3 mps 758 mmHg 30%
    14:00 +33°C° 0 mm 4 mps 758 mmHg 30%
    15:00 +34°C° 0 mm 5 mps 758 mmHg 29%
    16:00 +32°C° 0 mm 6 mps 757 mmHg 33%
    17:00 +29°C° 0 mm 6 mps 757 mmHg 37%
    18:00 +27°C° 0 mm 6 mps 757 mmHg 40%
    19:00 +26°C° 0 mm 5 mps 757 mmHg 47%
    20:00 +23°C° 0 mm 4 mps 757 mmHg 53%
    21:00 +22°C° 0 mm 3 mps 757 mmHg 59%
    22:00 +21°C° 0 mm 2 mps 757 mmHg 61%
    23:00 +21°C° 0 mm 2 mps 757 mmHg 63%

    29 May, Friday

    Time Temperature Precipitation Wind Pressure Humidity
    00:00 +21°C° 0 mm 1 mps 756 mmHg 65%
    01:00 +21°C° 0 mm 1 mps 756 mmHg 66%
    02:00 +21°C° 0 mm 1 mps 756 mmHg 67%
    03:00 +21°C° 0 mm 1 mps 755 mmHg 68%
    04:00 +21°C° 0 mm 1 mps 755 mmHg 66%
    05:00 +21°C° 0 mm 2 mps 755 mmHg 64%
    06:00 +23°C° 0 mm 2 mps 755 mmHg 62%
    07:00 +24°C° 0.1 mm 1 mps 755 mmHg 56%
    08:00 +26°C° 0.1 mm 1 mps 755 mmHg 50%
    09:00 +28°C° 0.1 mm 1 mps 755 mmHg 44%
    10:00 +30°C° 0.1 mm 2 mps 755 mmHg 39%
    11:00 +32°C° 0.1 mm 2 mps 755 mmHg 35%
    12:00 +34°C° 0.1 mm 3 mps 754 mmHg 30%
    13:00 +35°C° 0 mm 4 mps 754 mmHg 30%
    14:00 +35°C° 0 mm 5 mps 753 mmHg 30%
    15:00 +36°C° 0 mm 6 mps 752 mmHg 30%
    16:00 +34°C° 0.1 mm 6 mps 752 mmHg 36%
    17:00 +32°C° 0.1 mm 6 mps 752 mmHg 42%
    18:00 +29°C° 0.1 mm 6 mps 752 mmHg 48%
    19:00 +28°C° 0 mm 4 mps 752 mmHg 52%
    20:00 +26°C° 0 mm 3 mps 753 mmHg 56%
    21:00 +25°C° 0 mm 1 mps 753 mmHg 60%
    22:00 +25°C° 0 mm 1 mps 753 mmHg 61%
    23:00 +25°C° 0 mm 2 mps 752 mmHg 62%

    30 May, Saturday

    Time Temperature Precipitation Wind Pressure Humidity
    00:00 +24°C° 0 mm 2 mps 752 mmHg 63%
    01:00 +24°C° 0 mm 2 mps 752 mmHg 65%
    02:00 +23°C° 0 mm 2 mps 752 mmHg 66%
    03:00 +23°C° 0 mm 2 mps 752 mmHg 68%
    04:00 +23°C° 0 mm 2 mps 752 mmHg 65%
    05:00 +24°C° 0 mm 3 mps 752 mmHg 61%
    06:00 +24°C° 0 mm 3 mps 753 mmHg 57%
    07:00 +26°C° 0 mm 2 mps 753 mmHg 52%
    08:00 +28°C° 0 mm 1 mps 753 mmHg 48%
    09:00 +29°C° 0 mm 1 mps 753 mmHg 43%
    10:00 +31°C° 0 mm 1 mps 754 mmHg 40%
    11:00 +32°C° 0 mm 2 mps 754 mmHg 37%
    12:00 +35°C° 0 mm 3 mps 754 mmHg 33%
    13:00 +35°C° 0 mm 5 mps 754 mmHg 35%
    14:00 +34°C° 0 mm 8 mps 754 mmHg 37%
    15:00 +34°C° 0 mm 10 mps 754 mmHg 39%
    16:00 +33°C° 0 mm 10 mps 754 mmHg 42%
    17:00 +32°C° 0 mm 10 mps 755 mmHg 44%
    18:00 +29°C° 0 mm 10 mps 755 mmHg 47%
    19:00 +28°C° 0 mm 9 mps 756 mmHg 49%
    20:00 +27°C° 0 mm 7 mps 757 mmHg 52%
    21:00 +26°C° 0 mm 6 mps 758 mmHg 55%
    22:00 +25°C° 0 mm 5 mps 758 mmHg 60%
    23:00 +23°C° 0 mm 4 mps 758 mmHg 65%
    Show more